 AS12914C1  30Mar99
 JST   14:08 - 14:23
                            0D 00 00 72 96 85 60 95 92 B0 89 B3 B3 B5 B3 B2 
 HI HI A6 C7 88 55 1E 79 FF 0D 00 00 97 6F 6B 60 95 92 B0 75 B3 B2 B4 B3 B2 
 HI HI A6 C7 88 55 03 79 FF 0D 00 00 6D 39 7E 60 95 92 B0 78 B3 B2 B4 B3 B2 
 HI HI A6 C7 88 55 08 7A 0A 0D 00 00 53 5F 82 61 96 92 B0 80 B3 B2 B4 B3 B2 
 HI HI A6 C7 88 55 0E 7A FF 0D 00 00 7E 84 82 61 96 92 B0 8F B3 B2 B4 B2 B2 
 HI HI A6 C7 88 55 13 7A FF AO 00 00 8F 5D 6E 61 96 92 B0 83 B3 B1 B4 B3 B2 
 HI HI A6 C7 88 55 18 7A FF 0D 00 00 6F 48 7A 61 96 93 B0 8F B3 B1 B4 B3 B2
 HI HI A6 C7 88 55 1E 7A FF 1E 00 00 70 65 87 61 96 93 B0 73 B3 B1 B4 B3 B2 
 HI HI A6 C7 88 55 03 7A FF 0D 00 00 85 69 86 61 96 93 B0 72 B3 B1 B4 B2 B2 
 HI HI A6 C7 88 55 08 7A FF 0D 00 00 85 58 81 61 96 93 B0 7C B3 B1 B3 B2 B2 
 HI HI A6 C7 88 55 0E 7A 0A 0D 00 00 81 56 93 61 96 93 B0 75 B3 B1 B3 B2 B2 
 HI HI A6 C7 88 55 13 7A FF 0D 00 00 83 51 85 61 96 93 B0 76 B3 B0 B3 B2 B2 
 HI HI A6 C7 88 55 18 7A FF 1E 00 00 7A 4C 80 61 96 93 B0 76 B3 B0 B3 B3 B2 
 HI HI A6 C7 88 55 1E 7B FF 0D 00 00 7F 5E 7F 61 97 93 B0 7E B2 B0 B3 B2 B2 
 HI HI A6 C7 88 55 03 7C FF 0D 00 00 97 5E 8D 61 97 93 B0 76 B2 B0 B3 B2 B2
 HI HI A6 c7 88 55 0E 7E FF 0D 00 00 66 34 7E 61 97 93 B0 83 B2 B0 B2 B2 B2 
 HI HI A6 C7 88 51 13 7F FF 0D 00 00          61 97 94 B0 8B B2 AF B2 B2 B2 
 HI HI A6 C7 88 51 18 80 FF 25 00 00 A7 60 8B 61 97 94 B0 85 B2 AF B2 B2 B2 
 HI HI A6 C7 88 51 1E 80 FF 0D 00 00 82 2C 72 61 97 94 B0 78 B2 AF B2 B2 B2 
 
 3)  JAアナログテレメトリの 4月2日(金)の
    JST  14:54 - 14:10 の最後の行の換算例.

  テレメトリ    内   容	       換算値  単 位
 3C	磁気センサーZ軸	=	38725.5	nT
 3D	磁気センサX軸	=	74509.8	nT
 4A	太陽電池発生電流	=	 1078.4	mA
 4B	B充放電電流	= 	  -98.8	mA
 4C	B端子電圧	=	   16.0	V
 4D	B中間端子電圧	=	    7.0	V
 5A	バス電圧 	=	   17.3	V
 5B	JTA送信電力	=	  818.4	mW
 5C 	構体温度1	=	   13.5	℃
 5D	構体温度2	=	   14.7	℃
 6A	構体温度3	=	   13.1	℃
 6B	構体温度4	=	   13.1	℃
 6C	Bセル温度	=          13.9	℃

 *計算処理は OFFICE 97 を使用.
 
===============   FO−29(ふじ 3号)のデジトーカについて   ===================

   [jamsat:bb-4338]宇宙ウグイスと子供達というテーマで JG1LDV局の白子さんが
 投稿されてましたので転載させて頂きました.
 
 JG1LDV白子です。
「This is JAS-2 ホーホケキョ、・・・・」

「あれ!無線機からウグイスの声が聞こえる」
「人工衛星の中でどうやってウグイスを飼ってるのですか?」
「餌は何をどのようにやるのですか?」
 ・
 ・子供達は変わり番こにアンテナの方向や角度を動かして熱心に衛星を追跡してい 
   ました

   これは、去る3月26日の日本宇宙少年団わたらせ分団活動での一コマです。
 ラッキーな事にJAS-2のデジトーカ運用スケジュールが延長され、子供達に感動
  的な「宇宙ウグイス」の観察をプレゼントできました。
  活動状況は、個人ホームページ
  http://www2s.biglobe.ne.jp/~gshirako/
  でご覧いただけます。・・・JAMSATホームページからもリンクされています。
  早 々
 
==============================================================================

  3)FO−20(ふじ2号)のCWテレメトリは3月24日(水)18:07(JST)の
     パスではテレメトリーが単一トーンの連続音から唸りを伴った連続音、さらにゆらぎの
     ある信号になり、いままでより若干信号が弱くなっていました.
---------------------------------------------------------------------------

 ■ 軌道要素1 :出典は「ふじ3号」に同じ. 
  
  FO-20
  1 20480U 90013C   99091.07276701 -.00000057  00000-0 -51662-4 0  1300
  2 20480  99.0329 300.4541 0540261 339.4075  18.5990 12.83250249428444
 
 ■ 軌道要素2 :出典は「ふじ3号」に同じ.  
               
 Satellite: FO-20
 Catalog number: 20480
 Epoch time:      99091.07276701
 Element set:     130
 Inclination:       99.0329 deg
 RA of node:       300.4541 deg
 Eccentricity:    0.0540261
 Arg of perigee:   339.4075 deg
 Mean anomaly:      18.5990 deg
 Mean motion:   12.83250249 rev/day
 Decay rate:       -5.7e-07 rev/day^2
 Epoch rev:           42844
 Checksum:              290
  
  ====================    FO-20のQSOの状況 ==========================
   
  久しぶりにFO−20のCWによるQRVの状況がJA6BX局江崎さんが
 [jamsat:bbー4339]に投稿されてましたので転載させて頂きます.

   今日 19:10(JST) に 当局の LOS 直前でしたが、JA0SUQ/JD1 斉藤さんが南鳥島
 から FO-20 に CW で QRV されていました。 

	  Yoshio Esaki
	  esaki@m2.people.or.jp
	  ja6bx@jamsat.or.jp 
	  ja6bx@amsat.org
  =====================================================================
 4)JARL のホームページに新しい運用追加予定が記載されていましたのでご紹介します.
       ( http://www.jarl.or.jp/Japanese/3_Fuji/uy.htm )

        ■ ふじ3号/FO−29 ■  
  
  ふじ3号(JAS−2) 運用予定
   *** 運用日程について ***
     3月19日 〜 3月29日     デジトーカ運用(:FM音声メッセージ送信)
   3月29日 〜 4月 5日     アナログ系運用
   4月 5日 〜 4月12日     デジタル系1200bpsメールボックス運用  
   4月12日 〜 4月27日     アナログ系運用
   ☆4月28日  〜  5月  6日     デジトーカ運用(:FM音声メッセージ送信)

 * 運用日程の変更についても詳しく閲覧できるようになっていますので参照下さい.

        ■ ふじ2号/FO−20 ■      
            「ふじ2号」 現況                                                                                               
   JAS-1b/FO-20(ふじ2号)の不具合発生について
    JAS-1b(ふじ2号)のCWテレメトリ信号に,1997年10月12日12時
 (JST)の日本上空通過時,3桁の数字が繰り返されるはずが3個の長音の
  繰り返しとなっているという異常が発見されました。この不具合は次の通過時
  からは回復していましたが13日15時20分の通過時に再び観測されました。
  衛星のアナログ系中継モード動作は異常が無く,正常時のテレメトリ内容からは
  衛星の動作に異常は認められません。従って,直ちに衛星のミッションに影響す
  ることは無いと予想されますので,当面はアナログ系中継モードを継続します。
  衛星は既に打ち上げてから7年8ヶ月を経ておりますので,今後は監視を強化す
  る予定です。アマチュア各位のレポートをお待ちします.   
  
  以上  http://www.jarl.or.jp/Japanese/3_Fuji/fuji.htm
                                           
   =============   JAS-2 (ふじ3号)と現在までの情報   ===========  
  A.電話によるふじ3号の運用情報
      社団法人日本アマチュア連盟によるサービス
           TEL .   03− 3942 − 1000
  B.アマチュア無線FAXサービス
      JARLによるふじ3号の軌道情報(オービットカレンダー)
         FAX No.  03− 3233 −0055
  C.WWWブラウザで情報を簡単に見れる人のためにJAS−2
     ふじ3号の衛星としての運用されるまでの名前)の概要、打ち上げ
     までの状況、運用中における状況を説明したホームページを紹介し
     ておきます.
     社団法人日本アマチュア無線連盟(JARL)のホームページ

          http://www.jarl.or.jp/Japanese/3_Fuji
 
     宇宙開発事業団(NASDA)ホームページ 
          http://www.nasda.go.jp/
         打上げ衛星 :地球観測プラットフォーム技術衛星(ADEOS) 
                       アマチュア衛星3号(JAS-2)
          http://yyy.tksc.nasda.go.jp/Home/Press/Press-j/jas-2_j.html        

  D.JAMSATによる軌道情報の活用
        JAMSATのホームページまたはjamsat−kepsの軌道要素より
      衛星の軌道情報を得る.
     JAMSATホームページ
               URL    http://www.jamsat.or.jp
       上記ホームページでは各地で行われるアマチュア通信衛星に関する
      ミューティングのお知らせや世界のアマチュア衛星に関する情報が
      満載されています.
   
 =========================================================================
       JAMSATのメンバーのご協力によりJH6MME(高山 秀造)が
    執筆・編集を担当しております.ご指摘の意見、疑問やこのようにしたら
    というアイデアがありましたら小さなことでもかまいませんので気軽に下
    記アドレスまでご連絡ください.jamsat−newsからjas2
    infoへの転載をJH4PHW局坂井さんに担当して頂いております.
                    Eーmail : jh6mme@jamsat.or.jp : jh4phw@jamsat.or.jp
 ===============================   END  ===============================